This is the latest recevied weather packets stored in our database for station/object KB2EAR-13. If no packets are shown the sender has not sent any weather packets the latest 1 day(s).
| Time | Temp. | Humidity | Pressure | Rain* | Wind** | Luminosity | Snow |
|---|---|---|---|---|---|---|---|
| 1778021418 | 27.22° C | 36% | 1009.4 hPa | 0 mm | 2.68 m/s, 248° | - | - |
| 1778021118 | 27.22° C | 35% | 1009.3 hPa | 0 mm | 2.68 m/s, 270° | - | - |
| 1778020818 | 27.22° C | 35% | 1009.2 hPa | 0 mm | 2.24 m/s, 270° | - | - |
| 1778020517 | 27.22° C | 35% | 1009.1 hPa | 0 mm | 1.79 m/s, 270° | - | - |
| 1778020218 | 27.22° C | 34% | 1009.2 hPa | 0 mm | 2.24 m/s, 248° | - | - |
| 1778019918 | 27.22° C | 34% | 1009.4 hPa | 0 mm | 3.58 m/s, 248° | - | - |
| 1778019618 | 27.22° C | 34% | 1009.3 hPa | 0 mm | 2.68 m/s, 270° | - | - |
| 1778019318 | 27.22° C | 34% | 1009.3 hPa | 0 mm | 2.24 m/s, 270° | - | - |
| 1778019018 | 27.22° C | 33% | 1009.2 hPa | 0 mm | 3.58 m/s, 248° | - | - |
| 1778018717 | 27.22° C | 33% | 1009.2 hPa | 0 mm | 2.24 m/s, 270° | - | - |
| 1778018509 | 27.22° C | 33% | 1009.1 hPa | 0 mm | 2.68 m/s, 248° | - | - |
| 1778018438 | 27.78° C | 32% | 1009 hPa | 0 mm | 3.13 m/s, 270° | - | - |
| 1778018126 | 27.78° C | 32% | 1009 hPa | 0 mm | 3.13 m/s, 270° | - | - |
| 1778017818 | 27.78° C | 31% | 1008.9 hPa | 0 mm | 2.68 m/s, 270° | - | - |
| 1778017517 | 27.78° C | 31% | 1008.7 hPa | 0 mm | 2.68 m/s, 270° | - | - |
| 1778017218 | 27.78° C | 31% | 1008.8 hPa | 0 mm | 3.58 m/s, 270° | - | - |
| 1778016918 | 27.78° C | 30% | 1008.9 hPa | 0 mm | 3.13 m/s, 270° | - | - |
| 1778016617 | 27.78° C | 31% | 1008.8 hPa | 0 mm | 3.58 m/s, 248° | - | - |
| 1778016318 | 28.33° C | 30% | 1008.9 hPa | 0 mm | 3.13 m/s, 248° | - | - |
| 1778016017 | 28.33° C | 30% | 1008.9 hPa | 0 mm | 2.24 m/s, 270° | - | - |
| 1778015717 | 28.33° C | 31% | 1009.1 hPa | 0 mm | 2.68 m/s, 270° | - | - |
| 1778015417 | 28.33° C | 30% | 1009 hPa | 0 mm | 2.68 m/s, 270° | - | - |
| 1778015117 | 28.33° C | 31% | 1009 hPa | 0 mm | 4.02 m/s, 270° | - | - |
| 1778014817 | 28.33° C | 31% | 1008.8 hPa | 0 mm | 3.58 m/s, 270° | - | - |
| 1778014517 | 28.33° C | 35% | 1008.7 hPa | 0 mm | 3.58 m/s, 270° | - | - |
* Rain latest hour (hover to see other rain measurements)
** Current wind speed in m/s (hover to see current wind gust speed)